Starlink 30967

operational
NORAD ID: 58416 Int'l Des: 2023-180 Owner: SPXS Country: US Constellation: starlink
LEOCIRCULAR

Über Starlink 30967

Beschreibung wird geladen...

Live-Position

3D-Globus wird geladen...

Nächste Überflüge

Höhenverlauf

Altitude vs Time

uPlot chart will show altitude changes over time

Zweizeiliger Elementsatz

1 58416U 23180Q 25351.85592882 -.00000329 00000-0 -92833-5 0 9997
2 58416 43.0028 140.8058 0001261 270.6064 89.4634 15.02532207115271
Epoch: 17. Dez. 2025 • Age: 11 hours

Aktueller Status

Höhe 567.5 km
Geschwindigkeit 7.58 km/s
Subsatellitenpunkt -32.83°S, 104.49°W
Startdatum 22. Nov. 2023
Alter 2 years
Typ internet

Technische Details

Klassifizierung Payload
Masse 730.00 kg
Trockenmasse 700.00 kg
Gesamtmasse 730.00 kg
Länge 0.30 m
Durchmesser 4.10 m
Spannweite 29.00 m
Form Box + pan
Hersteller SPXS
Bus-Typ Starlink V2M
Phasenstatus In Orbit
Besitzer/Staat SPXS/US

Große Konstellationen

Loading constellations...